[[{"header":{"parameterUnit":"m.s-1","parameterCategory":1,"la1":30.2991,"la2":30.254,"lo1":-89.0895,"lo2":-89.0444,"dy":0.0017,"dx":0.0017,"nx":28,"ny":28,"refTime":"2025-12-05T03:00:00:Z","depth":0,"parameterNumber":2,"parameterNumberName":"U-component_of_WINDS"},"data":[0,0,0,0,0,0,0,0,0,0,0,0,0,0,0,0,0,0,0,0,0,0,0,0,0,0,0,0,0,0,0,0,0,0,0,0,0,0,0,0,0,0,0,0,0,0,0,0,0,0,0,0,0,0,0,0,0,0,-0.3684,-0.3684,0,-0.3752,-0.3753,-0.3754,-0.3762,-0.3762,-0.3761,-0.376,-0.3832,-0.3834,-0.3837,0,0,0,0,0,0,0,0,0,0,0,0,0,-0.356,-0.3562,-0.3684,-0.3684,-0.3685,-0.3752,-0.3753,-0.3754,-0.3762,-0.3762,-0.3761,-0.376,-0.3831,-0.3834,-0.3837,0,0,0,0,0,0,0,0,0,0,0,0,0,-0.362,-0.3563,-0.3683,-0.3697,-0.3699,-0.3752,-0.3753,-0.3754,-0.3763,-0.3762,-0.3761,-0.376,-0.383,-0.3833,-0.3837,-0.3881,0,0,-0.3849,-0.385,0,0,0,0,0,0,0,0,-0.3616,-0.3624,-0.3695,-0.3697,-0.3699,-0.3748,-0.3736,-0.3797,-0.3763,-0.3739,-0.376,-0.3759,-0.3805,-0.381,-0.3825,-0.3884,-0.3887,-0.3849,-0.3851,-0.3853,-0.3854,0,0,0,0,0,0,0,-0.3612,-0.3621,-0.3711,-0.3696,-0.3698,-0.37,-0.3708,-0.3747,-0.3776,-0.3741,-0.3741,-0.3749,-0.3806,-0.3822,-0.3827,-0.3888,-0.3849,-0.3852,-0.3855,-0.3856,-0.3984,-0.3985,0,0,0,0,0,0,-0.3605,-0.3618,-0.3709,-0.3713,-0.3654,-0.3703,-0.3712,-0.3733,-0.3776,-0.3782,-0.375,-0.3749,-0.3816,-0.3823,-0.383,-0.3883,-0.3853,-0.3857,-0.3859,-0.3983,-0.3985,-0.3986,0,0,0,0,0,0,-0.3603,-0.3613,-0.3706,-0.3666,-0.3677,-0.3707,-0.373,-0.3735,-0.3751,-0.3783,-0.3788,-0.3761,-0.3815,-0.3824,-0.3868,-0.3885,-0.3858,-0.3862,-0.3982,-0.3984,-0.3985,-0.399,0,0,0,0,0,0,-0.3599,-0.3612,-0.3629,-0.3666,-0.368,-0.3743,-0.3732,-0.3737,-0.3757,-0.3757,-0.3795,-0.38,-0.3815,-0.3862,-0.3871,-0.389,-0.3865,-0.398,-0.3983,-0.3985,-0.3988,-0.3991,-0.3994,0,0,0,0,0,-0.3595,-0.3628,-0.363,-0.3641,-0.3701,-0.3744,-0.3751,-0.3767,-0.3759,-0.3776,-0.3796,-0.3799,-0.3882,-0.3866,-0.3877,-0.3897,-0.3979,-0.3982,-0.3985,-0.3987,-0.3991,-0.3994,0,0,0,0,0,0,-0.3594,-0.3633,-0.3636,-0.3682,-0.3709,-0.3745,-0.3767,-0.3771,-0.3802,-0.38,-0.3819,-0.3828,-0.387,-0.3888,-0.387,-0.3941,-0.393,-0.3935,-0.3928,-0.3932,-0.3935,-0.393,-0.3868,0,0,0,0,0,-0.3599,-0.363,-0.3663,-0.37,-0.3714,-0.3738,-0.3757,-0.3767,-0.3796,-0.3808,-0.3831,-0.3859,-0.3892,-0.3913,-0.3944,-0.399,-0.3998,-0.4009,-0.4012,-0.4015,-0.4019,-0.4044,-0.4049,-0.3994,-0.3994,-0.3994,0,0,-0.361,-0.3635,-0.3654,-0.3701,-0.3723,-0.3754,-0.3748,-0.3782,-0.3805,-0.3813,-0.3855,-0.3873,-0.3906,-0.395,-0.3971,-0.3967,-0.4035,-0.4018,-0.4019,-0.4022,-0.4047,-0.4052,-0.4056,-0.3996,-0.3996,-0.3995,0,0,-0.3646,-0.3669,-0.3702,-0.3724,-0.3757,-0.3773,-0.3781,-0.3816,-0.3828,-0.387,-0.3876,-0.3904,-0.396,-0.3982,-0.4001,-0.4044,-0.4048,-0.4054,-0.407,-0.4094,-0.4098,-0.4102,-0.4117,-0.4122,-0.4058,-0.4058,-0.4058,0,-0.3656,-0.3704,-0.3719,-0.3752,-0.3773,-0.378,-0.3814,-0.3835,-0.3877,-0.389,-0.3884,-0.3953,-0.3976,-0.4025,-0.4035,-0.4051,-0.406,-0.405,-0.4096,-0.41,-0.4104,-0.4119,-0.4124,-0.4058,-0.4058,-0.4058,-0.4058,0,-0.3714,-0.3746,-0.3769,-0.3809,-0.3832,-0.3865,-0.3885,-0.3907,-0.3914,-0.393,-0.3972,-0.3999,-0.4036,-0.4048,-0.4056,-0.4099,-0.4095,-0.4092,-0.4082,-0.411,-0.4123,-0.4129,-0.4059,-0.4059,-0.4059,-0.4059,0,0,-0.3753,-0.3799,-0.3807,-0.3825,-0.3861,-0.3887,-0.392,-0.3956,-0.3973,-0.4001,-0.403,-0.4075,-0.4073,-0.4094,-0.4104,-0.4125,-0.4157,-0.412,-0.4121,-0.4126,-0.4205,-0.4207,-0.4213,-0.4159,-0.416,-0.4161,-0.4202,0,-0.3793,-0.3853,-0.3867,-0.3918,-0.3948,-0.3955,-0.3983,-0.4009,-0.4024,-0.4052,-0.4069,-0.4101,-0.4096,-0.4108,-0.4129,-0.4149,-0.4173,-0.4146,-0.4186,-0.4187,-0.4178,-0.422,-0.4223,-0.426,-0.4208,-0.4209,-0.4209,0,-0.3849,-0.3878,-0.3931,-0.3963,-0.3976,-0.4002,-0.4034,-0.4061,-0.4089,-0.4099,-0.4122,-0.413,-0.4164,-0.4151,-0.4199,-0.418,-0.4197,-0.4208,-0.421,-0.4215,-0.42,-0.4226,-0.4272,-0.4278,-0.4218,-0.4217,-0.4217,0,-0.3872,-0.3924,-0.3962,-0.3977,-0.4015,-0.4033,-0.4049,-0.4077,-0.4096,-0.4125,-0.4138,-0.417,-0.4188,-0.4213,-0.4229,-0.4218,-0.4275,-0.4263,-0.4284,-0.4283,-0.4296,-0.4295,-0.4346,-0.4307,-0.4307,-0.4306,-0.4306,0,-0.3916,-0.3948,-0.3973,-0.3997,-0.4033,-0.4048,-0.4084,-0.4101,-0.4125,-0.4152,-0.4159,-0.4185,-0.4204,-0.4232,-0.4245,-0.4282,-0.429,-0.4298,-0.4302,-0.4298,-0.4297,-0.431,-0.4308,-0.4308,-0.4308,-0.4307,-0.4307,0,-0.3948,-0.3966,-0.4008,-0.404,-0.4048,-0.4074,-0.4101,-0.4124,-0.4139,-0.4173,-0.4182,-0.4205,-0.4238,-0.4256,-0.4298,-0.4306,-0.4348,-0.4349,-0.4338,-0.4339,-0.4359,-0.4357,-0.442,-0.4428,-0.4383,-0.4384,-0.4384,0,-0.3975,-0.4,-0.4034,-0.4052,-0.4069,-0.4098,-0.4118,-0.4134,-0.4154,-0.4188,-0.4207,-0.424,-0.4267,-0.4319,-0.434,-0.4372,-0.4374,-0.4394,-0.4379,-0.4374,-0.4374,-0.4373,-0.4375,-0.4397,-0.4397,-0.4397,-0.4398,0,-0.4021,-0.4028,-0.4057,-0.4087,-0.4111,-0.4136,-0.4161,-0.4176,-0.4195,-0.4218,-0.4251,-0.4272,-0.4313,-0.4346,-0.4379,-0.4396,-0.44,-0.4402,-0.4408,-0.4405,-0.4397,-0.4402,-0.4345,-0.4401,-0.44,-0.44,-0.44,-0.44,-0.4052,-0.4074,-0.4101,-0.4132,-0.4152,-0.4175,-0.4197,-0.4215,-0.4243,-0.4277,-0.4285,-0.432,-0.4346,-0.4391,-0.4408,-0.4436,-0.4432,-0.4441,-0.4444,-0.4446,-0.4446,-0.4393,-0.4442,-0.4442,-0.4442,-0.4442,-0.4442,0,-0.4098,-0.4115,-0.4143,-0.4178,-0.4202,-0.4202,-0.423,-0.425,-0.428,-0.4305,-0.4331,-0.4369,-0.44,-0.4422,-0.4454,-0.4472,-0.4474,-0.4479,-0.4479,-0.4482,-0.4448,-0.4439,-0.4477,-0.4477,-0.4477,-0.4477,-0.4477,-0.4477,-0.4125,-0.4162,-0.4172,-0.4219,-0.4236,-0.427,-0.4286,-0.4307,-0.4326,-0.4367,-0.4393,-0.4407,-0.4431,-0.4464,-0.4492,-0.4498,-0.451,-0.4515,-0.4521,-0.4489,-0.4485,-0.4481,-0.4473,-0.4517,-0.4517,-0.4552,-0.4553,-0.4553]},{"header":{"parameterUnit":"m.s-1","parameterCategory":1,"la1":30.2991,"la2":30.254,"lo1":-89.0895,"lo2":-89.0444,"dy":0.0017,"dx":0.0017,"nx":28,"ny":28,"refTime":"2025-12-05T03:00:00:Z","depth":0,"parameterNumber":3,"parameterNumberName":"V-component_of_WINDS"},"data":[0,0,0,0,0,0,0,0,0,0,0,0,0,0,0,0,0,0,0,0,0,0,0,0,0,0,0,0,0,0,0,0,0,0,0,0,0,0,0,0,0,0,0,0,0,0,0,0,0,0,0,0,0,0,0,0,0,0,-2.4882,-2.4882,0,-2.4913,-2.4914,-2.4914,-2.4894,-2.4893,-2.4892,-2.4891,-2.492,-2.4922,-2.4923,0,0,0,0,0,0,0,0,0,0,0,0,0,-2.4803,-2.4805,-2.4882,-2.4883,-2.4883,-2.4913,-2.4914,-2.4914,-2.4894,-2.4893,-2.4892,-2.4891,-2.4919,-2.4921,-2.4923,0,0,0,0,0,0,0,0,0,0,0,0,0,-2.4836,-2.4805,-2.4882,-2.4877,-2.4876,-2.4913,-2.4914,-2.4914,-2.4894,-2.4893,-2.4891,-2.489,-2.4919,-2.4921,-2.4924,-2.4966,0,0,-2.4931,-2.4932,0,0,0,0,0,0,0,0,-2.4834,-2.4839,-2.4877,-2.4877,-2.4877,-2.4898,-2.4896,-2.4931,-2.4894,-2.4887,-2.4891,-2.4889,-2.4914,-2.4916,-2.4925,-2.4968,-2.4969,-2.4931,-2.4933,-2.4934,-2.4934,0,0,0,0,0,0,0,-2.4832,-2.4837,-2.4894,-2.4878,-2.4878,-2.4872,-2.4875,-2.4903,-2.4908,-2.4888,-2.4886,-2.4891,-2.4913,-2.4923,-2.4926,-2.4969,-2.4931,-2.4933,-2.4935,-2.4936,-2.5049,-2.505,0,0,0,0,0,0,-2.483,-2.4836,-2.4893,-2.4895,-2.4852,-2.4874,-2.4878,-2.4893,-2.4907,-2.4908,-2.4892,-2.489,-2.4919,-2.4923,-2.4927,-2.4978,-2.4934,-2.4936,-2.4937,-2.5047,-2.5049,-2.5051,0,0,0,0,0,0,-2.4829,-2.4836,-2.4892,-2.4865,-2.4872,-2.4877,-2.4894,-2.4894,-2.4904,-2.491,-2.4911,-2.4901,-2.4918,-2.4923,-2.4957,-2.4979,-2.4937,-2.4939,-2.5046,-2.5048,-2.505,-2.5081,0,0,0,0,0,0,-2.4827,-2.4835,-2.4852,-2.4866,-2.4873,-2.4923,-2.4895,-2.4896,-2.4908,-2.4906,-2.4919,-2.492,-2.4918,-2.4953,-2.4959,-2.4981,-2.4941,-2.5044,-2.5047,-2.5049,-2.5078,-2.5084,-2.5089,0,0,0,0,0,-2.4824,-2.4859,-2.4853,-2.486,-2.4895,-2.4924,-2.4928,-2.4926,-2.491,-2.4927,-2.4931,-2.4919,-2.4976,-2.4957,-2.4964,-2.4987,-2.5042,-2.5046,-2.5049,-2.5076,-2.5083,-2.5089,0,0,0,0,0,0,-2.4846,-2.4861,-2.4854,-2.4895,-2.4909,-2.492,-2.4941,-2.4934,-2.4951,-2.4948,-2.4943,-2.4947,-2.4982,-2.4988,-2.4967,-2.5029,-2.5006,-2.5011,-2.5024,-2.5031,-2.5037,-2.5035,-2.4943,0,0,0,0,0,-2.4856,-2.488,-2.489,-2.4925,-2.4932,-2.4936,-2.4948,-2.4946,-2.4959,-2.4964,-2.4971,-2.4984,-2.5005,-2.5018,-2.5037,-2.5079,-2.5081,-2.5098,-2.5104,-2.5108,-2.5112,-2.5135,-2.5143,-2.5062,-2.5062,-2.5062,0,0,-2.4877,-2.4887,-2.4902,-2.493,-2.494,-2.4964,-2.4941,-2.4967,-2.4984,-2.4968,-2.5001,-2.5006,-2.502,-2.5058,-2.5075,-2.5064,-2.5135,-2.5113,-2.5116,-2.5118,-2.5139,-2.5147,-2.5154,-2.5065,-2.5064,-2.5064,0,0,-2.4926,-2.4936,-2.4967,-2.4978,-2.4994,-2.4996,-2.5004,-2.5017,-2.5021,-2.5053,-2.5042,-2.5062,-2.5098,-2.5108,-2.5118,-2.5173,-2.5163,-2.5179,-2.5208,-2.523,-2.5237,-2.5242,-2.5262,-2.5269,-2.5183,-2.5183,-2.5183,0,-2.4949,-2.4985,-2.4983,-2.501,-2.5023,-2.5011,-2.5041,-2.5052,-2.5073,-2.5082,-2.5069,-2.5114,-2.5122,-2.5163,-2.5176,-2.5185,-2.5193,-2.5177,-2.5236,-2.5242,-2.5247,-2.5265,-2.5273,-2.5185,-2.5185,-2.5185,-2.5185,0,-2.5012,-2.5037,-2.506,-2.5082,-2.5097,-2.5126,-2.5128,-2.5143,-2.5139,-2.5143,-2.5176,-2.5186,-2.5208,-2.5217,-2.5213,-2.5257,-2.525,-2.5237,-2.5214,-2.5256,-2.5274,-2.5281,-2.5188,-2.5187,-2.5187,-2.5186,0,0,-2.5076,-2.5098,-2.5106,-2.5116,-2.5134,-2.5153,-2.5181,-2.5203,-2.5216,-2.5231,-2.5254,-2.5285,-2.5274,-2.5285,-2.5282,-2.5301,-2.5344,-2.5286,-2.5286,-2.5297,-2.5394,-2.5404,-2.5412,-2.5338,-2.5339,-2.534,-2.5393,0,-2.5126,-2.5176,-2.5176,-2.5222,-2.5245,-2.5234,-2.5259,-2.5272,-2.5276,-2.5296,-2.53,-2.5322,-2.5305,-2.5312,-2.533,-2.5335,-2.5364,-2.5331,-2.5359,-2.536,-2.5356,-2.5421,-2.5431,-2.5481,-2.54,-2.5401,-2.5402,0,-2.5191,-2.521,-2.5259,-2.5274,-2.5284,-2.5306,-2.5326,-2.5345,-2.536,-2.5361,-2.5375,-2.5369,-2.5397,-2.5374,-2.5412,-2.539,-2.5401,-2.5405,-2.5407,-2.541,-2.5383,-2.5425,-2.5496,-2.5504,-2.5412,-2.5411,-2.5411,0,-2.5233,-2.5271,-2.5305,-2.5314,-2.5332,-2.5348,-2.5356,-2.5369,-2.5383,-2.54,-2.5409,-2.5429,-2.544,-2.5456,-2.5455,-2.5438,-2.5494,-2.5471,-2.5496,-2.5496,-2.5508,-2.5507,-2.5582,-2.5515,-2.5515,-2.5515,-2.5515,0,-2.5289,-2.532,-2.5324,-2.5345,-2.5379,-2.5378,-2.5411,-2.5417,-2.5429,-2.5451,-2.5442,-2.5463,-2.5461,-2.5481,-2.5481,-2.5513,-2.5518,-2.552,-2.5519,-2.5521,-2.5521,-2.5528,-2.5525,-2.5517,-2.5517,-2.5516,-2.5516,0,-2.5341,-2.5346,-2.5382,-2.5397,-2.5401,-2.5426,-2.5438,-2.5457,-2.5461,-2.5489,-2.5495,-2.5501,-2.5524,-2.5526,-2.5552,-2.5552,-2.5591,-2.5587,-2.5587,-2.5586,-2.5612,-2.5609,-2.5694,-2.5705,-2.5631,-2.5631,-2.5632,0,-2.5377,-2.54,-2.5418,-2.5433,-2.5442,-2.5465,-2.548,-2.5479,-2.5494,-2.5513,-2.5531,-2.5554,-2.5572,-2.5611,-2.5616,-2.5637,-2.5633,-2.5661,-2.5636,-2.5637,-2.5634,-2.5633,-2.5635,-2.5666,-2.5667,-2.5668,-2.5668,0,-2.544,-2.5441,-2.5462,-2.5485,-2.5502,-2.552,-2.5536,-2.5548,-2.5549,-2.5567,-2.5592,-2.5606,-2.5634,-2.5657,-2.5678,-2.5685,-2.5677,-2.5676,-2.5683,-2.5685,-2.5684,-2.5685,-2.56,-2.5674,-2.5674,-2.5673,-2.5673,-2.5673,-2.5485,-2.5506,-2.5522,-2.5546,-2.5558,-2.5574,-2.5593,-2.56,-2.5621,-2.5645,-2.5643,-2.5671,-2.5685,-2.5712,-2.5721,-2.5742,-2.5732,-2.5742,-2.5745,-2.5748,-2.5751,-2.5681,-2.5746,-2.5746,-2.5745,-2.5745,-2.5745,0,-2.5548,-2.5558,-2.558,-2.5604,-2.5623,-2.5615,-2.5632,-2.5648,-2.5673,-2.5688,-2.5707,-2.5735,-2.5758,-2.5766,-2.5788,-2.5803,-2.58,-2.5809,-2.5808,-2.581,-2.5758,-2.575,-2.5811,-2.5811,-2.5811,-2.5811,-2.5811,-2.5811,-2.5582,-2.5617,-2.562,-2.5661,-2.567,-2.5698,-2.5709,-2.5723,-2.5735,-2.5768,-2.5787,-2.5793,-2.5805,-2.5828,-2.5848,-2.585,-2.5858,-2.5869,-2.5869,-2.582,-2.5813,-2.5807,-2.5799,-2.587,-2.5871,-2.5919,-2.592,-2.592]}]]